Weather History for Hurlburt Field, FL

Change the Weather History Date:

Saturday, January 19, 2013

  Actual Average Record
Temperature  
Mean Temperature 49 °F -  
Max Temperature 63 °F 59 °F 71 °F (2001)
Min Temperature 35 °F 40 °F 26 °F (1997)
Degree Days  
Heating Degree Days 16    
Moisture  
Dew Point 47 °F    
Average Humidity 80    
Maximum Humidity 100    
Minimum Humidity 62    
Precipitation  
Precipitation 0.00 in - - ()
Sea Level Pressure  
Sea Level Pressure 30.30 in    
Wind  
Wind Speed 6 mph (NE)    
Max Wind Speed 9 mph    
Max Gust Speed -    
Visibility 10 miles    
Events Rain    
Averages and records for this station are not official NWS values.
T = Trace of Precipitation, MM = Missing Value Source: NWS Daily Summary

Daily Weather History Graph

Daily Weather History Graph

Search for Another Location

Airport:

Trip Planner

Search our weather history database for the weather conditions in past years. The results will help you decide how hot, cold, wet, or windy it might be!

Date:

Astronomy

Jan. 19, 2013 Rise Set
Actual Time 6:43 AM CST 5:12 PM CST
Civil Twilight 6:17 AM CST 5:37 PM CST
Nautical Twilight 5:48 AM CST 6:07 PM CST
Astronomical Twilight 5:19 AM CST 6:36 PM CST
Moon 11:33 AM CST (1/19) 12:23 AM CST (1/19)
Length of Visible Light 11h 20m
Length of Day
10h 28m
First Quarter, 57% of the Moon is Illuminated
Jan 19
First Quarter
Jan 26
Full
Feb 3
Last Quarter
Feb 10
New
Feb 17
First Quarter

Hourly Weather History & Observations

Time (CST) Temp. Windchill Dew Point Humidity Pressure Visibility Wind Dir Wind Speed Gust Speed Precip Events Conditions
12:55 AM 35.8 °F 33.0 °F 34.5 °F 95% 30.38 in 10.0 mi NE 3.5 mph - N/A   Clear
1:15 AM 39.2 °F 35.0 °F 37.4 °F 93% 30.37 in 5.0 mi ENE 5.8 mph - N/A   Clear
1:18 AM 39.2 °F 35.0 °F 37.4 °F 93% 30.37 in 4.0 mi ENE 5.8 mph - N/A   Clear
1:33 AM 39.2 °F 35.0 °F 35.6 °F 87% 30.37 in 4.0 mi ENE 5.8 mph - N/A   Clear
1:34 AM 39.2 °F 35.9 °F 35.6 °F 87% 30.37 in 4.0 mi NE 4.6 mph - N/A   Clear
1:47 AM 39.2 °F 33.6 °F 35.6 °F 87% 30.37 in 6.0 mi ENE 8.1 mph - N/A   Clear
1:52 AM 41.0 °F 35.8 °F 37.4 °F 87% 30.37 in 6.0 mi ENE 8.1 mph - N/A   Clear
1:55 AM 40.5 °F 35.1 °F 37.0 °F 88% 30.37 in 7.0 mi ENE 8.1 mph - N/A   Clear
2:55 AM 36.0 °F 29.6 °F 34.2 °F 93% 30.37 in 10.0 mi North 8.1 mph - N/A   Clear
3:55 AM 35.6 °F 29.2 °F 34.3 °F 95% 30.38 in 10.0 mi North 8.1 mph - N/A   Clear
4:55 AM 35.8 °F 30.9 °F 34.2 °F 94% 30.37 in 10.0 mi NNE 5.8 mph - N/A   Clear
5:55 AM 35.6 °F 29.9 °F 34.3 °F 95% 30.37 in 10.0 mi North 6.9 mph - N/A   Clear
6:55 AM 36.0 °F 31.1 °F 34.5 °F 94% 30.39 in 10.0 mi North 5.8 mph - N/A   Clear
7:55 AM 42.8 °F 39.3 °F 38.1 °F 84% 30.40 in 10.0 mi NE 5.8 mph - N/A   Clear
8:55 AM 50.5 °F - 38.7 °F 64% 30.41 in 10.0 mi NE 9.2 mph - N/A   Clear
9:45 AM 55.4 °F - 42.8 °F 63% 30.40 in 10.0 mi ENE 9.2 mph - N/A   Light Drizzle
9:55 AM 54.3 °F - 41.9 °F 63% 30.40 in 10.0 mi ENE 9.2 mph - 0.00 in   Light Drizzle
10:02 AM 53.6 °F - 41.0 °F 62% 30.40 in 10.0 mi East 9.2 mph - N/A   Light Drizzle
10:09 AM 53.6 °F - 42.8 °F 67% 30.40 in 10.0 mi ENE 9.2 mph - N/A   Mostly Cloudy
10:46 AM 55.4 °F - 42.8 °F 63% 30.38 in 10.0 mi East 6.9 mph - N/A   Light Drizzle
10:55 AM 56.3 °F - 44.1 °F 64% 30.38 in 10.0 mi East 8.1 mph - 0.00 in   Light Drizzle
11:19 AM 57.2 °F - 44.6 °F 63% 30.36 in 10.0 mi East 5.8 mph - N/A   Overcast
11:27 AM 57.2 °F - 44.6 °F 63% 30.35 in 10.0 mi East 6.9 mph - N/A   Light Drizzle
11:48 AM 57.2 °F - 44.6 °F 63% 30.34 in 10.0 mi ESE 4.6 mph - N/A   Overcast
11:54 AM 57.2 °F - 46.4 °F 67% 30.33 in 10.0 mi ENE 5.8 mph - N/A   Light Drizzle
11:55 AM 57.2 °F - 45.9 °F 66% 30.33 in 10.0 mi ENE 5.8 mph - 0.00 in   Light Drizzle
12:31 PM 59.0 °F - 48.2 °F 67% 30.31 in 10.0 mi Variable 3.5 mph - N/A   Overcast
12:35 PM 59.0 °F - 48.2 °F 67% 30.31 in 10.0 mi Variable 4.6 mph - N/A   Light Drizzle
12:55 PM 60.4 °F - 48.7 °F 65% 30.30 in 10.0 mi North 5.8 mph - 0.00 in   Light Drizzle
1:21 PM 62.6 °F - 51.8 °F 68% 30.29 in 10.0 mi NNE 6.9 mph - N/A   Light Drizzle
1:55 PM 63.1 °F - 51.4 °F 66% 30.27 in 10.0 mi NE 6.9 mph - 0.00 in   Light Drizzle
1:59 PM 62.6 °F - 51.8 °F 68% 30.27 in 10.0 mi NE 6.9 mph - N/A   Partly Cloudy
2:00 PM 62.6 °F - 51.8 °F 68% 30.27 in 10.0 mi ENE 8.1 mph - N/A   Light Drizzle
2:05 PM 62.6 °F - 51.8 °F 68% 30.27 in 10.0 mi ENE 6.9 mph - N/A   Light Drizzle
2:34 PM 62.6 °F - 51.8 °F 68% 30.26 in 10.0 mi ENE 4.6 mph - N/A   Mostly Cloudy
2:55 PM 62.8 °F - 52.0 °F 68% 30.25 in 10.0 mi NE 8.1 mph - 0.00 in   Overcast
2:56 PM 62.6 °F - 51.8 °F 68% 30.25 in 10.0 mi NE 8.1 mph - N/A Rain Light Rain
3:08 PM 62.6 °F - 51.8 °F 68% 30.25 in 10.0 mi NE 5.8 mph - N/A   Light Drizzle
3:09 PM 62.6 °F - 51.8 °F 68% 30.25 in 10.0 mi NE 6.9 mph - N/A   Scattered Clouds
3:14 PM 62.6 °F - 51.8 °F 68% 30.25 in 10.0 mi ENE 8.1 mph - N/A   Light Drizzle
3:29 PM 62.6 °F - 51.8 °F 68% 30.25 in 10.0 mi NNE 6.9 mph - N/A   Light Drizzle
3:44 PM 62.6 °F - 51.8 °F 68% 30.26 in 10.0 mi NNE 6.9 mph - N/A   Overcast
3:55 PM 61.7 °F - 51.1 °F 68% 30.25 in 10.0 mi NNE 9.2 mph - 0.00 in   Overcast
4:11 PM 60.8 °F - 51.8 °F 72% 30.25 in 10.0 mi NNE 8.1 mph - N/A   Mostly Cloudy
4:32 PM 60.8 °F - 51.8 °F 72% 30.26 in 10.0 mi NE 3.5 mph - N/A   Light Drizzle
4:33 PM 60.8 °F - 51.8 °F 72% 30.26 in 10.0 mi NNE 4.6 mph - N/A   Overcast
4:34 PM 60.8 °F - 51.8 °F 72% 30.26 in 10.0 mi NNE 3.5 mph - N/A   Light Drizzle
4:42 PM 59.0 °F - 51.8 °F 77% 30.26 in 10.0 mi NNE 4.6 mph - N/A   Overcast
4:47 PM 59.0 °F - 51.8 °F 77% 30.26 in 10.0 mi NNE 4.6 mph - N/A   Light Drizzle
4:55 PM 59.4 °F - 51.3 °F 75% 30.26 in 10.0 mi NNE 4.6 mph - 0.00 in   Light Drizzle
4:57 PM 59.0 °F - 51.8 °F 77% 30.26 in 10.0 mi NNE 3.5 mph - N/A   Overcast
5:05 PM 59.0 °F - 51.8 °F 77% 30.26 in 10.0 mi NNE 3.5 mph - N/A   Light Drizzle
5:12 PM 59.0 °F - 51.8 °F 77% 30.26 in 10.0 mi North 4.6 mph - N/A   Overcast
5:21 PM 57.2 °F - 51.8 °F 82% 30.26 in 10.0 mi North 4.6 mph - N/A   Light Drizzle
5:36 PM 57.2 °F - 51.8 °F 82% 30.26 in 10.0 mi NNE 3.5 mph - N/A   Overcast
5:42 PM 57.2 °F - 51.8 °F 82% 30.26 in 10.0 mi North 3.5 mph - N/A   Overcast
5:43 PM 57.2 °F - 51.8 °F 82% 30.26 in 10.0 mi North 3.5 mph - N/A   Light Drizzle
5:55 PM 57.0 °F - 51.6 °F 82% 30.26 in 10.0 mi North 5.8 mph - 0.00 in   Light Drizzle
5:58 PM 57.2 °F - 51.8 °F 82% 30.26 in 10.0 mi NNE 4.6 mph - N/A   Light Drizzle
6:02 PM 57.2 °F - 51.8 °F 82% 30.26 in 10.0 mi NNE 4.6 mph - N/A   Light Drizzle
6:03 PM 57.2 °F - 51.8 °F 82% 30.26 in 10.0 mi NNE 4.6 mph - N/A   Overcast
6:05 PM 57.2 °F - 51.8 °F 82% 30.26 in 10.0 mi NNE 4.6 mph - N/A   Overcast
6:07 PM 55.4 °F - 51.8 °F 88% 30.26 in 10.0 mi NNE 4.6 mph - N/A   Overcast
6:32 PM 55.4 °F - 51.8 °F 88% 30.26 in 10.0 mi NNE 3.5 mph - N/A   Light Drizzle
6:41 PM 55.4 °F - 51.8 °F 88% 30.27 in 10.0 mi NNE 3.5 mph - N/A   Light Drizzle
6:47 PM 55.4 °F - 51.8 °F 88% 30.27 in 10.0 mi NNE 3.5 mph - N/A   Light Drizzle
6:53 PM 55.4 °F - 51.8 °F 88% 30.27 in 10.0 mi Calm Calm - N/A   Light Drizzle
6:55 PM 55.2 °F - 51.6 °F 88% 30.27 in 10.0 mi Calm Calm - 0.00 in   Light Drizzle
7:14 PM 53.6 °F - 50.0 °F 88% 30.27 in 10.0 mi North 3.5 mph - N/A   Overcast
7:17 PM 53.6 °F - 50.0 °F 88% 30.27 in 10.0 mi North 3.5 mph - N/A   Light Drizzle
7:38 PM 53.6 °F - 51.8 °F 94% 30.28 in 10.0 mi Calm Calm - N/A   Overcast
7:39 PM 53.6 °F - 51.8 °F 94% 30.28 in 10.0 mi Calm Calm - N/A   Overcast
7:49 PM 53.6 °F - 51.8 °F 94% 30.28 in 10.0 mi Calm Calm - N/A   Overcast
7:55 PM 53.8 °F - 50.9 °F 90% 30.28 in 10.0 mi Calm Calm - 0.00 in   Mostly Cloudy
7:59 PM 53.6 °F - 50.0 °F 88% 30.28 in 10.0 mi North 3.5 mph - N/A   Light Drizzle
8:14 PM 51.8 °F - 50.0 °F 94% 30.28 in 10.0 mi North 3.5 mph - N/A   Mostly Cloudy
8:29 PM 50.0 °F - 50.0 °F 100% 30.27 in 10.0 mi NE 4.6 mph - N/A   Light Drizzle
8:38 PM 50.0 °F - 48.2 °F 94% 30.27 in 10.0 mi NE 3.5 mph - N/A   Overcast
8:55 PM 49.8 °F - 49.8 °F 100% 30.27 in 10.0 mi NNE 3.5 mph - 0.00 in   Mostly Cloudy
9:55 PM 48.4 °F - 48.4 °F 100% 30.25 in 10.0 mi Calm Calm - N/A   Partly Cloudy
10:55 PM 46.0 °F - 46.0 °F 100% 30.24 in 10.0 mi Calm Calm - N/A   Scattered Clouds
10:59 PM 46.4 °F - 46.4 °F 100% 30.24 in 10.0 mi Calm Calm - N/A   Mostly Cloudy
11:39 PM 48.2 °F - 48.2 °F 100% 30.25 in 10.0 mi North 4.6 mph - N/A   Overcast
11:55 PM 48.0 °F - 48.0 °F 100% 30.25 in 10.0 mi North 4.6 mph - N/A   Overcast